Temp
-8 -9 -8 -8 -8 -7 -7 -6 -5 -5 -4 -3 -2 -1 0 1 4 7 13 13 14 14 14 14 13 15 15 15 15 15 16 17 17 15 15 14 13 13 12 12 12 13 13
-8 -9 -9 -8 -8 -8 -7 -6 -6 -5 -4 -3 -2 -0 1 2 4 10 13 13 14 14 13 13 13 15 15 15 15 15 16 16 16 13 14 13 13 13 12 12 12 12 12
-8 -9 -9 -8 -8 -8 -7 -7 -6 -4 -2 -2 -1 1 2 3 6 10 13 13 13 14 13 13 14 14 14 15 15 15 15 15 16 15 13 13 13 12 13 13 12 12 12
-8 -9 -9 -8 -8 -8 -7 -7 -5 -3 -2 -1 1 2 4 6 7 10 12 13 13 13 13 13 12 13 14 15 15 15 14 14 15 15 13 12 12 12 12 13 12 12 11
-8 -9 -9 -9 -8 -8 -7 -7 -5 -4 -3 -1 -0 1 2 3 4 9 12 12 12 13 12 12 12 12 14 14 14 15 14 14 14 15 13 13 12 12 12 12 12 12 11
-9 -9 -9 -9 -8 -8 -7 -7 -6 -5 -4 -3 -2 -1 1 2 2 6 11 12 12 12 12 12 11 11 12 14 14 15 14 14 14 14 14 14 13 13 11 12 12 12 12
-9 -9 -9 -9 -9 -8 -7 -7 -6 -5 -5 -4 -3 -2 -0 1 1 5 10 11 12 12 12 12 11 11 11 12 13 14 14 14 15 14 15 14 14 13 12 12 12 12 13
-9 -9 -9 -8 -9 -8 -7 -7 -7 -5 -5 -5 -4 -3 -1 -0 1 2 7 10 11 12 12 12 11 11 11 11 11 12 13 13 14 14 14 15 15 14 13 13 13 12 13
-8 -9 -9 -9 -9 -9 -8 -7 -7 -6 -6 -5 -5 -3 -3 -1 -1 -0 3 4 7 8 9 12 12 11 11 11 11 10 12 12 12 13 14 14 14 14 13 13 12 12 12
-8 -8 -8 -9 -9 -8 -9 -7 -7 -6 -6 -5 -5 -5 -3 -3 -1 -1 -1 -0 1 3 4 5 6 7 10 11 11 10 11 12 11 11 12 12 13 13 13 13 12 12 12
-8 -8 -8 -8 -8 -8 -8 -8 -7 -6 -6 -6 -5 -5 -5 -3 -3 -2 -2 -2 -2 -1 -0 1 2 3 5 8 10 10 11 11 11 11 10 11 11 12 12 12 12 12 12
-8 -8 -8 -8 -8 -8 -8 -8 -7 -6 -6 -6 -5 -4 -5 -5 -4 -3 -3 -3 -3 -3 -2 -1 -0 2 4 6 8 10 10 11 11 10 10 11 11 11 11 11 12 12 13
-8 -8 -8 -8 -8 -8 -7 -7 -6 -6 -5 -5 -5 -5 -5 -5 -5 -4 -4 -4 -4 -4 -4 -3 -2 1 2 3 6 8 9 10 10 10 10 10 11 11 11 10 11 12 11
-8 -8 -8 -8 -8 -8 -7 -6 -6 -5 -5 -6 -6 -5 -5 -5 -5 -5 -5 -6 -5 -5 -5 -5 -4 -3 -1 -0 2 4 5 6 8 10 10 11 11 11 11 11 10 10 11
-9 -9 -9 -9 -9 -8 -8 -7 -7 -6 -6 -6 -6 -6 -6 -6 -6 -5 -5 -6 -6 -6 -6 -7 -7 -6 -6 -6 -5 -2 -0 2 3 4 6 9 10 10 10 11 10 10 10
-8 -9 -9 -9 -9 -9 -8 -7 -8 -8 -7 -6 -6 -6 -6 -6 -6 -7 -7 -6 -7 -7 -7 -8 -8 -8 -8 -8 -8 -7 -5 -4 -3 -2 -0 1 4 9 10 10 10 10 10
-9 -9 -9 -10 -9 -9 -8 -8 -7 -8 -9 -8 -8 -7 -7 -8 -8 -8 -8 -8 -8 -8 -8 -8 -9 -9 -9 -9 -8 -9 -8 -7 -6 -4 -3 -2 -2 0 3 9 9 10 10
-9 -10 -10 -10 -10 -9 -9 -9 -9 -8 -8 -9 -9 -9 -9 -9 -9 -9 -9 -9 -9 -10 -10 -9 -9 -9 -9 -9 -9 -9 -9 -8 -7 -7 -5 -4 -3 -3 -1 0 3 9 10
-11 -11 -11 -11 -11 -10 -10 -10 -9 -9 -9 -9 -9 -9 -10 -9 -9 -10 -10 -10 -10 -10 -10 -10 -10 -10 -10 -10 -9 -9 -9 -8 -8 -8 -7 -6 -5 -4 -3 -3 -1 -0 2
-11 -11 -11 -11 -11 -10 -10 -10 -10 -10 -10 -10 -10 -9 -10 -10 -10 -10 -10 -11 -11 -11 -11 -11 -11 -11 -11 -10 -10 -10 -9 -9 -9 -9 -8 -8 -7 -6 -5 -4 -3 -3 -1
-12 -12 -11 -11 -11 -11 -11 -10 -11 -10 -10 -10 -11 -10 -10 -11 -11 -11 -11 -11 -11 -11 -12 -12 -12 -12 -11 -11 -10 -10 -10 -9 -9 -9 -9 -8 -8 -7 -6 -5 -4 -3 -3
-13 -13 -12 -11 -12 -11 -11 -11 -11 -11 -11 -11 -11 -11 -11 -11 -11 -11 -12 -12 -12 -12 -12 -12 -12 -12 -12 -12 -12 -11 -10 -10 -10 -10 -9 -9 -8 -8 -7 -7 -6 -5 -4
-13 -13 -13 -13 -12 -11 -11 -11 -11 -11 -11 -11 -11 -11 -11 -11 -12 -12 -12 -12 -12 -13 -13 -13 -13 -13 -13 -12 -11 -11 -11 -10 -10 -10 -10 -9 -9 -8 -8 -7 -7 -6 -6
-13 -13 -13 -13 -12 -12 -11 -11 -12 -12 -11 -12 -12 -12 -12 -12 -12 -12 -12 -13 -13 -13 -13 -13 -13 -13 -12 -12 -11 -10 -10 -10 -10 -10 -10 -10 -9 -9 -9 -8 -8 -7 -7
-13 -13 -13 -13 -12 -12 -12 -12 -12 -12 -12 -12 -12 -12 -12 -12 -12 -12 -13 -12 -12 -13 -13 -13 -13 -13 -12 -12 -12 -11 -10 -10 -10 -10 -10 -10 -10 -9 -9 -9 -9 -8 -7
-13 -13 -13 -13 -13 -13 -12 -12 -12 -13 -13 -13 -13 -13 -13 -13 -13 -13 -13 -13 -12 -12 -12 -13 -13 -13 -13 -12 -12 -12 -11 -10 -10 -11 -11 -11 -11 -10 -9 -10 -9 -9 -8
Height
759 752 745 737 728 721 714 706 698 692 687 683 677 670 668 663 658 662 662 671 681 691 701 707 717 730 738 746 753 758 766 772 775 785 794 798 802 804 810 815 818 822 828
754 748 740 731 722 714 706 697 688 682 676 673 670 665 663 663 656 653 656 663 673 682 690 697 711 723 730 737 744 751 759 766 770 778 787 791 795 799 804 808 812 817 822
750 744 735 726 717 708 698 689 680 672 665 661 657 653 653 653 652 650 652 655 664 672 681 691 703 712 720 728 736 745 752 759 764 769 778 784 789 793 799 804 807 812 816
747 741 734 723 714 703 695 686 679 669 656 647 645 654 651 646 646 640 645 652 659 665 672 682 692 701 710 720 728 736 743 751 757 763 769 776 782 787 791 796 801 805 809
746 739 732 721 712 702 694 684 675 667 654 656 657 657 651 643 639 635 643 648 655 664 669 676 686 690 704 710 718 727 735 742 749 757 763 769 775 780 783 789 794 798 802
745 739 732 721 711 702 694 686 673 664 664 660 658 651 643 637 641 639 641 645 654 662 667 672 679 686 694 704 711 718 724 730 739 747 755 759 765 771 776 781 786 790 796
745 739 733 725 714 701 689 675 676 678 670 668 664 650 641 643 642 638 640 648 654 660 664 671 676 682 688 695 705 712 718 722 727 735 743 749 756 762 767 772 777 780 782
744 740 734 727 720 710 700 696 686 682 677 664 669 656 648 649 645 643 642 647 651 660 660 667 670 675 680 690 698 705 713 718 723 730 736 742 748 751 754 759 763 769 778
744 740 736 730 726 720 710 697 694 692 690 685 678 658 655 653 654 650 646 649 648 657 659 663 666 671 676 683 690 698 705 712 717 723 729 736 741 745 748 755 759 765 769
744 740 737 734 729 724 720 713 703 694 687 696 678 670 664 664 666 661 657 651 660 659 660 661 663 666 669 675 684 689 698 702 710 718 724 731 735 738 742 745 749 752 758
743 740 737 734 732 730 725 722 720 714 703 685 689 679 664 669 669 668 662 663 669 665 663 662 666 669 672 675 679 681 687 696 704 709 715 721 726 729 732 737 743 743 747
744 741 737 733 730 730 726 722 716 711 709 702 684 682 684 682 683 682 677 675 670 672 667 670 673 672 673 672 671 679 686 692 697 704 708 712 716 720 723 729 735 737 740
745 742 739 736 733 728 724 722 716 710 705 700 698 695 696 694 695 689 677 672 677 669 672 673 677 672 673 673 673 676 681 686 691 696 699 702 707 709 716 722 725 729 732
745 744 742 739 736 734 731 727 722 717 714 710 706 707 705 699 695 691 690 684 683 676 677 677 679 677 673 675 675 676 679 682 686 689 691 694 699 704 708 712 714 720 724
745 745 744 743 741 738 735 733 730 726 723 721 720 717 713 709 708 704 695 694 692 690 688 685 680 680 675 679 683 679 681 681 683 685 688 690 691 694 698 700 704 710 713
745 745 746 745 744 742 740 738 737 735 733 730 728 724 722 718 715 711 706 703 698 695 692 692 691 694 694 692 691 688 687 686 689 688 687 688 688 687 687 691 695 696 701
743 745 745 746 746 745 743 743 741 740 739 737 734 730 728 726 721 716 713 710 706 703 700 703 701 701 704 700 697 696 694 693 695 689 687 686 686 685 683 684 684 686 690
742 743 744 745 746 746 746 745 744 743 742 740 737 734 730 727 724 721 717 712 708 706 706 711 709 711 709 709 709 707 700 699 693 693 687 688 685 685 684 683 681 679 678
741 742 743 744 746 747 747 747 747 746 744 743 741 739 737 735 731 726 722 720 721 720 724 720 719 719 716 715 711 704 700 703 702 697 693 689 685 685 684 683 679 678 677
740 742 743 744 745 747 747 747 747 747 747 746 744 742 740 738 736 734 733 731 728 726 724 723 722 720 716 717 712 708 708 708 701 700 697 692 688 687 684 679 678 677 675
740 741 743 744 745 746 747 748 748 748 748 747 747 746 743 741 740 739 738 738 738 738 736 733 731 728 726 723 719 716 714 710 708 706 699 697 693 693 686 681 676 676 674
740 741 742 744 745 746 747 748 748 749 749 748 748 747 746 745 744 741 740 739 738 736 734 733 732 731 728 723 721 720 718 714 711 707 703 699 695 694 688 681 679 676 670
740 741 743 744 745 746 747 748 748 748 748 748 748 747 746 745 744 743 742 741 738 736 734 733 730 728 728 726 724 720 716 717 715 709 703 699 694 692 691 685 683 677 673
740 742 743 743 744 745 746 748 748 749 748 748 748 748 747 746 745 743 742 740 738 737 736 734 733 730 728 726 724 723 720 718 712 708 705 703 698 695 691 686 683 680 677
742 743 743 744 745 746 747 747 748 748 748 748 748 747 746 745 744 742 740 739 738 736 735 733 732 730 729 726 725 725 722 719 716 712 707 703 700 698 695 691 688 685 681
743 744 745 745 746 747 747 748 748 747 747 747 746 745 743 742 741 740 738 737 736 735 734 732 731 729 728 726 725 723 721 719 717 713 710 707 704 700 697 692 688 685 680
Wind_Speed
25 25 28 27 27 28 27 26 27 27 28 29 30 27 23 30 28 32 36 45 47 46 44 43 41 40 37 34 32 32 28 24 10 19 19 22 26 27 24 29 27 30 30
25 26 27 27 30 27 25 24 24 25 26 27 24 20 25 23 31 24 35 44 48 47 46 42 42 41 40 38 35 33 30 27 20 18 19 21 23 27 27 29 29 27 27
24 25 28 28 29 29 28 28 24 24 22 17 16 16 20 27 26 23 24 29 51 49 46 46 47 42 40 38 36 34 32 29 25 17 14 18 20 22 27 27 29 29 27
23 23 25 28 30 31 30 28 21 14 11 10 11 15 16 12 12 9 27 26 26 42 45 43 44 43 43 40 38 36 32 29 25 22 19 20 22 22 25 27 27 29 27
22 21 25 30 31 31 31 27 21 18 19 11 7 5 8 10 8 4 18 26 23 26 41 43 42 44 45 43 40 36 33 31 27 25 19 16 19 22 25 26 24 25 26
20 20 25 29 31 31 31 25 28 30 23 17 15 12 20 26 16 5 19 24 21 24 26 36 38 45 47 46 44 41 40 37 30 28 25 22 22 24 24 24 25 19 16
18 22 22 26 28 35 38 39 33 26 25 19 16 18 31 31 24 8 21 18 28 28 27 30 34 39 46 46 44 42 43 44 43 39 33 29 27 28 27 27 25 27 27
15 18 23 26 26 30 33 29 29 27 26 28 21 23 30 36 34 21 13 15 13 27 29 30 30 32 41 39 40 40 39 44 42 39 34 32 31 33 34 36 36 33 24
14 15 20 23 24 25 27 31 29 23 22 19 17 29 32 38 38 32 19 14 14 13 9 25 34 34 42 44 38 37 35 33 40 43 38 34 32 33 35 29 25 23 18
13 15 15 17 20 24 19 22 26 26 25 15 25 31 33 34 35 36 29 24 15 12 13 16 14 7 30 49 38 34 31 31 29 36 37 36 35 34 37 36 32 28 24
11 12 14 15 15 18 21 17 17 16 19 26 20 29 39 37 37 35 33 31 19 13 15 17 13 15 6 20 37 31 31 30 32 30 33 35 32 33 38 41 32 32 28
9 11 13 15 16 14 19 20 20 21 18 20 28 28 30 32 31 29 30 28 24 17 20 18 14 13 10 1 22 30 30 32 25 29 26 28 30 29 31 36 37 33 33
6 10 12 13 15 16 18 20 21 23 24 25 24 25 25 27 25 27 30 30 25 25 21 18 14 15 12 9 2 15 31 22 24 25 27 26 30 32 30 31 36 36 34
5 7 9 11 13 14 14 17 20 22 21 22 23 22 22 26 30 30 29 28 25 26 22 20 17 18 20 18 14 10 4 8 12 21 25 28 28 27 31 33 31 32 32
2 4 6 7 10 11 12 15 16 20 22 21 20 20 22 23 27 25 29 28 23 19 16 20 26 27 29 27 23 20 16 11 6 5 5 17 28 30 30 30 31 29 30
1 2 4 5 6 7 9 8 13 15 18 19 22 21 18 22 23 23 22 26 24 19 23 24 23 23 22 20 22 22 22 20 16 12 10 10 9 15 28 29 32 31 29
1 1 2 3 4 5 6 7 8 10 13 17 19 21 20 20 22 23 21 20 27 25 24 22 21 21 20 20 20 21 21 21 18 15 13 13 15 15 13 21 29 30 30
3 1 0 1 1 3 4 6 7 8 9 13 16 20 20 21 23 23 22 19 25 27 24 21 20 19 19 18 16 16 19 21 23 19 17 15 13 15 17 16 14 26 29
3 1 2 2 1 1 3 4 5 7 8 10 12 15 18 17 19 21 22 22 19 19 18 17 16 16 16 16 18 18 20 20 21 21 20 17 16 14 14 17 18 18 16
3 2 2 2 3 3 2 3 4 6 7 9 11 15 15 15 18 18 18 18 17 17 17 16 16 16 17 17 18 20 19 20 20 22 22 22 18 14 13 14 16 17 16
2 2 4 3 4 4 3 3 3 4 5 7 8 12 14 13 13 13 14 14 13 12 12 12 13 13 13 14 15 16 18 18 19 19 19 19 20 19 15 11 11 12 15
2 2 3 4 4 5 3 2 2 2 3 4 6 8 11 10 11 11 11 11 11 11 11 11 10 10 11 13 14 15 14 18 19 20 20 18 17 18 18 15 14 11 9
3 3 3 4 4 4 3 2 1 0 2 3 5 7 8 9 10 9 9 9 9 10 10 10 11 12 11 12 13 17 16 15 17 16 18 19 18 18 17 16 15 15 12
5 4 3 3 3 3 3 2 1 1 3 4 6 6 6 7 8 8 8 8 9 9 9 9 9 11 13 13 12 13 22 14 17 18 17 15 16 16 15 15 16 16 13
5 4 3 4 4 3 2 1 1 2 4 5 6 7 7 7 8 8 8 10 10 11 11 12 12 12 12 12 11 10 15 15 16 17 15 13 14 15 14 12 14 13 13
5 4 4 4 3 2 1 1 2 3 4 5 6 7 8 9 9 10 11 12 12 12 12 12 13 13 13 12 12 11 13 16 14 15 13 12 12 13 14 14 14 12 13
Wind_Direction
328 318 316 310 311 299 288 280 274 270 264 260 258 263 265 265 263 269 196 189 191 191 191 188 192 197 192 191 188 187 192 187 179 183 203 206 205 201 203 202 204 214 214
332 325 322 316 321 306 300 295 290 278 267 254 249 255 255 249 263 265 199 193 192 191 189 185 192 195 194 194 192 192 193 193 176 157 186 196 206 202 204 203 204 210 215
339 334 329 324 326 318 318 316 314 292 275 260 256 264 257 259 255 236 185 193 196 191 187 189 193 193 192 194 194 194 192 193 193 174 169 189 196 199 204 208 207 210 214
344 339 328 331 332 330 327 328 325 326 328 337 302 262 244 239 243 219 192 197 199 191 188 188 189 192 191 192 191 193 191 191 190 187 172 180 189 196 199 199 206 211 212
345 343 336 342 340 342 342 336 355 4 22 12 73 56 69 53 17 139 175 188 198 202 188 186 190 191 195 193 191 194 192 190 191 193 180 177 186 185 194 201 205 207 213
353 350 347 348 349 346 351 348 10 18 16 30 31 31 50 40 21 171 182 177 179 187 186 188 191 195 196 200 200 199 197 192 193 196 197 195 194 194 193 195 199 200 204
356 1 355 354 353 358 0 7 8 3 12 19 8 29 46 37 31 66 178 182 193 204 203 198 192 197 198 199 202 202 204 203 204 197 202 206 201 195 192 194 196 205 211
353 356 2 4 2 3 2 360 0 10 5 20 356 37 46 37 34 50 110 175 184 198 192 196 190 193 200 200 202 204 206 207 207 207 209 213 213 206 201 203 202 206 213
353 352 355 1 7 4 5 360 360 7 6 4 0 42 41 38 35 36 61 82 88 94 131 215 203 200 206 201 197 198 204 209 213 214 216 218 220 216 207 198 197 190 205
353 349 356 355 6 8 7 15 4 9 9 339 24 40 40 35 34 40 43 49 51 67 76 81 95 121 203 199 196 195 203 207 203 211 216 222 225 225 217 212 199 194 200
348 351 356 3 1 7 14 19 21 10 14 18 28 39 34 31 34 32 37 40 32 45 52 54 33 31 108 197 207 198 204 205 207 207 212 219 222 222 217 216 214 204 201
355 355 0 2 3 5 8 11 17 20 22 23 32 36 33 31 32 29 36 39 36 40 44 37 21 24 26 320 211 210 210 209 203 205 207 212 214 217 215 214 217 217 217
9 1 0 5 7 6 10 14 21 23 22 26 29 31 26 25 25 28 31 33 29 40 38 33 27 42 39 43 217 226 220 222 206 203 206 209 213 216 216 214 218 218 222
17 12 5 4 8 14 17 22 26 26 29 28 26 24 24 22 21 22 27 26 26 35 39 36 37 45 53 38 39 56 138 210 233 220 216 216 219 218 215 210 210 213 216
22 13 13 14 9 13 26 27 32 32 36 33 33 27 23 25 23 24 28 28 29 37 44 40 36 30 35 26 24 35 31 19 3 314 280 238 217 212 212 210 211 212 217
106 29 21 17 19 23 23 36 46 47 43 42 39 40 34 31 27 30 34 31 35 35 45 40 38 30 25 26 14 13 26 22 5 353 339 316 314 244 212 211 209 210 215
165 20 38 35 26 28 38 39 37 41 49 46 39 40 40 36 31 30 32 37 40 45 47 37 38 33 21 21 19 11 6 11 2 9 358 348 332 312 323 231 209 210 219
225 279 336 96 37 43 44 45 44 41 35 29 32 36 34 34 32 32 32 39 32 35 37 34 32 27 24 20 19 14 13 4 8 4 9 355 352 337 326 314 307 227 219
198 252 243 199 171 102 63 62 57 52 48 41 32 29 26 28 31 31 32 37 35 35 28 30 26 21 22 18 15 17 17 11 7 1 359 0 0 347 330 326 318 309 313
181 195 188 180 169 152 110 81 55 45 47 45 39 29 20 25 30 30 32 32 30 25 21 20 16 14 16 14 14 13 10 6 10 5 356 353 357 348 335 330 323 316 310
168 181 189 185 174 168 140 109 86 53 37 35 36 26 24 31 27 28 26 25 27 25 20 15 9 8 10 10 11 11 9 7 3 360 2 353 349 336 337 330 322 310 305
150 159 167 176 171 165 157 145 120 66 43 28 13 10 18 25 20 15 14 15 13 10 8 8 7 5 4 3 2 4 4 5 1 357 354 355 353 344 342 341 333 322 312
131 140 159 178 174 175 181 180 192 350 4 7 2 357 359 2 3 3 358 357 358 359 357 358 356 359 357 1 4 7 359 353 353 356 354 350 353 353 345 343 337 339 332
120 140 149 154 158 172 179 186 200 278 324 332 334 334 336 337 338 339 345 344 347 346 346 347 345 348 349 350 347 356 6 356 353 351 354 352 349 349 350 349 344 338 332
121 111 112 130 125 136 139 156 303 317 318 315 316 316 318 322 324 327 328 332 335 335 335 337 339 336 335 338 340 332 348 352 355 348 350 353 353 350 349 349 347 340 339
105 102 95 105 110 109 108 316 322 325 321 318 315 313 313 314 313 311 309 309 309 311 314 318 323 323 325 321 323 331 329 347 353 354 351 355 359 360 353 353 359 356 353